STARLINK-37439, 69377

Orbit data source: Space-Track

STARLINK-37439, 69377 is a payload satellite owned by SpaceX/Seattle (US) in LEO that was launched on Thu, 04 Jun 2026 UTC via an FALCON 9 launch vehicle from the Air Force Eastern Test Range (AFETR). Payload-class satellites include a variety of spacecraft equipped with specific instruments for various scientific and technological missions. These include communications satellites like Starlink; space stations such as the ISS; scientific satellites like the Hubble; Earth observation satellites from companies like Planet Labs, Umbra, and HawkEye 360; GPS; miniature CubeSats for education and research; and military/defense satellites.

Loading next visibility...
Identifier
69377, 2026-123AA
Orbit
LEO
Country
Flag of USUS
Related business
Manufacturer
SpaceX/Seattle
Mission
Operational spacecraft
Bus & Motor
STARLINK V2MO, Unknown motor
Mass
575 kg wet, ~530 kg dry
Launch date (UTC)
2026-06-04 (2 months ago)
Launch vehicle
FALCON 9
Launch site
Air Force Eastern Test Range (AFETR)
Object type
Payload
Rocket body
Debris
Shape & HBR
BOX + PAN, 17.7 m
Radar Cross Section
Large (>1 m²)

Expand to show TLE details & history
Last TLE update: 10 hours ago

TLE from 10 hours ago
0 STARLINK-37439
1 69377U 26123AA  26207.58335648 -.02308501  00000-0 -39075-1 0  9991
2 69377  53.1592  44.7898 0001012 119.7854 171.5023 15.54599845  5928
Epoch: 2026-07-26T14:00Z
TLE epoch observation values (Epoch: 2026-07-26T14:00:01.999Z)
Latitude
-48.39848°
Longitude
-166.54391°
Altitude
420.596 km
Speed
7.658 km/s
True Right ascension
23h 10m 58s
True Declination
-48° 13' 09"
Sunlit
Object was in full shadow at epoch
Visualization orbit readout
Latitude
Unknown
Longitude
Unknown
Altitude
Unknown
Speed
Unknown
Apparent Right ascension
Unknown
Apparent Declination
Unknown
Sunlit
N/A
Visualization observer readout
Local Sidereal Time
13:12:18
Azimuth
Unknown
Elevation
Unknown
Doppler factor
Unknown
Orbital elements
Apogee altitude
404.262 km
Perigee altitude
402.889 km
Semi-major axis
6,781.712 km
Eccentricity
0.0001
Inclination
53.1592°
RAAN
44.7898°
Arg. of periapsis
119.7854°
True anomaly
171.50401°
Mean anomaly
171.5023°
Eccentric anomaly
171.50316°
Mean motion
3.88628 °/min
Orbital period
92.63 mins
BSTAR
-0.039075
Loading maneuver chart data...
Computing Atmospheric mass density...
Loading historical data...
Loading historical data...
Loading historical data...
Loading historical data...
Loading historical data...
Loading historical data...
Loading historical data...

Documentation

Showing up to 5 results
|